[[{"header":{"parameterUnit":"m.s-1","parameterCategory":1,"la1":30.2991,"la2":30.254,"lo1":-89.0895,"lo2":-89.0444,"dy":0.0017,"dx":0.0017,"nx":28,"ny":28,"refTime":"2023-11-07T09:00:00:Z","depth":0,"parameterNumber":2,"parameterNumberName":"U-component_of_WINDS"},"data":[0,0,0,0,0,0,0,0,0,0,0,0,0,0,0,0,0,0,0,0,0,0,0,0,0,0,0,0,0,0,0,0,0,0,0,0,0,0,0,0,0,0,0,0,0,0,0,0,0,0,0,0,0,0,0,0,0,0,0.1163,0.1164,0,0.1203,0.1203,0.1204,0.1227,0.1227,0.1227,0.1227,0.1266,0.1267,0.1268,0,0,0,0,0,0,0,0,0,0,0,0,0,0.1104,0.1105,0.1163,0.1164,0.1164,0.1203,0.1203,0.1204,0.1227,0.1227,0.1227,0.1227,0.1266,0.1267,0.1268,0,0,0,0,0,0,0,0,0,0,0,0,0,0.1136,0.1106,0.1163,0.118,0.1182,0.1203,0.1203,0.1204,0.1227,0.1227,0.1227,0.1227,0.1265,0.1267,0.1268,0.1274,0,0,0.1272,0.1273,0,0,0,0,0,0,0,0,0.1134,0.1138,0.1177,0.1179,0.1181,0.121,0.1197,0.1227,0.1227,0.121,0.1227,0.1227,0.1247,0.125,0.1257,0.1276,0.1277,0.1273,0.1273,0.1274,0.1274,0,0,0,0,0,0,0,0.1132,0.1136,0.1179,0.1178,0.118,0.1185,0.119,0.1203,0.1227,0.1211,0.1213,0.1218,0.1248,0.1256,0.1258,0.1278,0.1273,0.1274,0.1275,0.1275,0.1302,0.1302,0,0,0,0,0,0,0.1127,0.1134,0.1178,0.118,0.1157,0.1186,0.1191,0.1201,0.1227,0.1231,0.1217,0.1218,0.1253,0.1257,0.126,0.1268,0.1274,0.1275,0.1276,0.1302,0.1302,0.1302,0,0,0,0,0,0,0.1126,0.1131,0.1176,0.1158,0.1164,0.1187,0.1197,0.1201,0.1209,0.1232,0.1236,0.1221,0.1254,0.1258,0.127,0.127,0.1276,0.1277,0.1303,0.1302,0.1302,0.1285,0,0,0,0,0,0,0.1124,0.113,0.1133,0.1158,0.1165,0.1187,0.1197,0.1202,0.1212,0.1213,0.1236,0.124,0.1254,0.1268,0.1272,0.1272,0.1278,0.1303,0.1302,0.1302,0.1285,0.1284,0.1283,0,0,0,0,0,0.1122,0.1127,0.1133,0.1138,0.1169,0.1186,0.119,0.1207,0.1211,0.1214,0.1229,0.1239,0.1269,0.1269,0.1273,0.1274,0.1303,0.1303,0.1302,0.1286,0.1284,0.1283,0,0,0,0,0,0,0.1101,0.113,0.1138,0.1151,0.1166,0.119,0.1195,0.1205,0.1219,0.122,0.1239,0.1244,0.1254,0.1265,0.1265,0.128,0.1287,0.1287,0.1273,0.1271,0.127,0.1267,0.128,0,0,0,0,0,0.1098,0.1111,0.1135,0.1144,0.1151,0.1171,0.118,0.1191,0.1207,0.1214,0.1229,0.1244,0.1257,0.1265,0.1277,0.1287,0.1291,0.1289,0.1288,0.1286,0.1287,0.1291,0.129,0.1301,0.1301,0.1301,0,0,0.1092,0.111,0.1116,0.114,0.1153,0.1165,0.1177,0.1189,0.1197,0.1215,0.1228,0.124,0.1257,0.1268,0.1274,0.1277,0.1285,0.1286,0.1285,0.1286,0.1291,0.129,0.1289,0.1301,0.1301,0.1301,0,0,0.1087,0.1102,0.1111,0.1124,0.1143,0.1157,0.1159,0.1181,0.119,0.1203,0.1217,0.1226,0.1248,0.126,0.1268,0.1266,0.1276,0.127,0.1263,0.1267,0.1266,0.1266,0.1265,0.1264,0.127,0.127,0.127,0,0.1077,0.1096,0.1114,0.1125,0.1135,0.1152,0.116,0.1172,0.1194,0.12,0.1204,0.1231,0.1244,0.1257,0.1257,0.1263,0.1266,0.1268,0.1265,0.1265,0.1264,0.1263,0.1263,0.1269,0.1269,0.1269,0.1269,0,0.1083,0.1095,0.11,0.1122,0.1132,0.1141,0.116,0.1168,0.1178,0.119,0.1202,0.1219,0.1235,0.1239,0.1249,0.1253,0.1255,0.1262,0.1269,0.1262,0.1262,0.1261,0.1268,0.1268,0.1268,0.1269,0,0,0.1067,0.1098,0.1099,0.1109,0.1131,0.1141,0.1151,0.1167,0.1173,0.1188,0.1196,0.1213,0.1219,0.1229,0.124,0.1244,0.1241,0.1251,0.1251,0.1248,0.1246,0.1241,0.124,0.1247,0.1247,0.1247,0.1244,0,0.1065,0.1085,0.1101,0.1114,0.1125,0.1141,0.1149,0.1163,0.1174,0.1185,0.1197,0.1209,0.1217,0.1223,0.1227,0.124,0.1241,0.1241,0.1254,0.1255,0.125,0.124,0.1235,0.1232,0.1244,0.1244,0.1244,0,0.1067,0.1081,0.1095,0.1116,0.1121,0.1128,0.1144,0.1154,0.1169,0.1177,0.1188,0.1199,0.1209,0.1215,0.1228,0.1228,0.1234,0.1241,0.1241,0.1243,0.1249,0.1242,0.1231,0.123,0.1244,0.1244,0.1244,0,0.1054,0.1076,0.1088,0.1095,0.112,0.1124,0.1134,0.115,0.1159,0.1172,0.1177,0.1191,0.1198,0.1208,0.1223,0.1225,0.1234,0.1241,0.1241,0.124,0.1242,0.1242,0.1232,0.1246,0.1246,0.1246,0.1246,0,0.105,0.1058,0.1082,0.1089,0.1098,0.1115,0.1124,0.1135,0.1149,0.1157,0.1171,0.1179,0.1197,0.1207,0.1218,0.1227,0.123,0.1236,0.1239,0.1235,0.1234,0.124,0.124,0.1246,0.1246,0.1246,0.1246,0,0.1038,0.1054,0.1067,0.1089,0.1094,0.11,0.1118,0.1125,0.1137,0.1147,0.1151,0.1169,0.1181,0.1196,0.1213,0.122,0.1227,0.1232,0.1222,0.1224,0.1223,0.1223,0.1216,0.1216,0.123,0.1229,0.1229,0,0.1035,0.1042,0.1064,0.1071,0.108,0.1092,0.11,0.1117,0.1125,0.1142,0.1147,0.116,0.1171,0.1189,0.1203,0.1216,0.122,0.1217,0.1222,0.1218,0.122,0.122,0.122,0.1216,0.1216,0.1216,0.1216,0,0.1028,0.1035,0.1048,0.1062,0.1072,0.1084,0.1097,0.1102,0.112,0.1129,0.1141,0.115,0.1167,0.1179,0.1193,0.1202,0.1212,0.1214,0.1214,0.121,0.1205,0.1207,0.1219,0.1214,0.1214,0.1214,0.1214,0.1214,0.102,0.1026,0.1043,0.1055,0.1067,0.1078,0.1085,0.1098,0.1109,0.1124,0.1133,0.1145,0.1159,0.1179,0.1187,0.1196,0.12,0.1201,0.1201,0.1201,0.1199,0.1203,0.1199,0.1199,0.1199,0.1199,0.1199,0,0.1013,0.1025,0.1036,0.1054,0.1063,0.1072,0.1086,0.1093,0.1104,0.1116,0.1127,0.1141,0.1152,0.1167,0.1179,0.1184,0.1188,0.1186,0.1186,0.1188,0.1196,0.1194,0.1182,0.1182,0.1182,0.1182,0.1182,0.1182,0.1011,0.1022,0.1031,0.1048,0.1058,0.1071,0.1078,0.1088,0.1098,0.1113,0.1123,0.1133,0.1146,0.1159,0.117,0.1174,0.1177,0.1174,0.1179,0.1186,0.1188,0.1189,0.1188,0.1175,0.1175,0.1171,0.1171,0.1171]},{"header":{"parameterUnit":"m.s-1","parameterCategory":1,"la1":30.2991,"la2":30.254,"lo1":-89.0895,"lo2":-89.0444,"dy":0.0017,"dx":0.0017,"nx":28,"ny":28,"refTime":"2023-11-07T09:00:00:Z","depth":0,"parameterNumber":3,"parameterNumberName":"V-component_of_WINDS"},"data":[0,0,0,0,0,0,0,0,0,0,0,0,0,0,0,0,0,0,0,0,0,0,0,0,0,0,0,0,0,0,0,0,0,0,0,0,0,0,0,0,0,0,0,0,0,0,0,0,0,0,0,0,0,0,0,0,0,0,2.905,2.9049,0,2.8969,2.8968,2.8967,2.8961,2.8962,2.8963,2.8964,2.8873,2.887,2.8866,0,0,0,0,0,0,0,0,0,0,0,0,0,2.9193,2.9191,2.905,2.9049,2.9048,2.8969,2.8968,2.8967,2.8961,2.8962,2.8963,2.8964,2.8874,2.887,2.8866,0,0,0,0,0,0,0,0,0,0,0,0,0,2.9123,2.919,2.905,2.9036,2.9034,2.8969,2.8968,2.8966,2.8961,2.8962,2.8963,2.8965,2.8875,2.887,2.8866,2.8807,0,0,2.8851,2.8848,0,0,0,0,0,0,0,0,2.9127,2.9118,2.9039,2.9037,2.9034,2.8977,2.8985,2.8913,2.896,2.8988,2.8964,2.8965,2.8906,2.8898,2.888,2.8803,2.8799,2.885,2.8847,2.8845,2.8844,0,0,0,0,0,0,0,2.9132,2.9122,2.9018,2.9038,2.9035,2.9031,2.9023,2.8971,2.894,2.8986,2.8985,2.8976,2.8905,2.8885,2.8878,2.8798,2.885,2.8846,2.8843,2.8841,2.8669,2.8667,0,0,0,0,0,0,2.9141,2.9126,2.902,2.9015,2.9085,2.9027,2.9018,2.8994,2.8941,2.8934,2.8975,2.8976,2.8892,2.8883,2.8874,2.8803,2.8845,2.884,2.8838,2.867,2.8668,2.8667,0,0,0,0,0,0,2.9144,2.9132,2.9024,2.907,2.9056,2.9024,2.8996,2.8991,2.8971,2.8932,2.8926,2.8961,2.8893,2.8881,2.8825,2.88,2.8838,2.8834,2.8672,2.867,2.8668,2.866,0,0,0,0,0,0,2.9148,2.9133,2.9112,2.907,2.9054,2.8977,2.8995,2.8989,2.8964,2.8964,2.8917,2.8911,2.8893,2.8832,2.882,2.8794,2.883,2.8674,2.8671,2.8668,2.8662,2.8658,2.8654,0,0,0,0,0,2.9153,2.9112,2.9111,2.9098,2.9028,2.8976,2.8967,2.8949,2.8962,2.894,2.8915,2.8912,2.8805,2.8826,2.8812,2.8785,2.8676,2.8672,2.8669,2.8664,2.8659,2.8654,0,0,0,0,0,0,2.9149,2.9106,2.9105,2.9049,2.9017,2.8975,2.8947,2.8944,2.8905,2.8907,2.8885,2.8874,2.8818,2.8795,2.8821,2.8725,2.8741,2.8735,2.8743,2.8737,2.8733,2.8739,2.8826,0,0,0,0,0,2.9142,2.9106,2.9069,2.9023,2.9007,2.898,2.8957,2.8946,2.8911,2.8896,2.8867,2.8831,2.8789,2.8761,2.872,2.8659,2.8648,2.8632,2.8628,2.8625,2.8619,2.8585,2.8577,2.8655,2.8655,2.8655,0,0,2.9126,2.9098,2.9076,2.9022,2.8995,2.8957,2.8968,2.8926,2.8897,2.8889,2.8835,2.8812,2.8769,2.871,2.8683,2.8689,2.8595,2.862,2.8618,2.8614,2.858,2.8573,2.8566,2.8652,2.8653,2.8653,0,0,2.9078,2.9054,2.9013,2.8987,2.8948,2.893,2.892,2.8879,2.8865,2.881,2.8804,2.8766,2.8695,2.8665,2.864,2.8581,2.8577,2.8568,2.8545,2.8511,2.8505,2.85,2.8478,2.8471,2.8562,2.8562,2.8562,0,2.9063,2.9007,2.8992,2.8951,2.8926,2.892,2.8877,2.8852,2.88,2.8782,2.8791,2.8701,2.8672,2.8606,2.8591,2.8572,2.8558,2.8573,2.8508,2.8502,2.8497,2.8476,2.8468,2.8561,2.8561,2.8562,2.8562,0,2.899,2.8951,2.8922,2.8876,2.8848,2.8806,2.8782,2.8755,2.8747,2.8728,2.8671,2.8636,2.8588,2.8571,2.8562,2.8503,2.8509,2.8513,2.8529,2.8489,2.8469,2.8461,2.856,2.8561,2.8561,2.8561,0,0,2.8938,2.8884,2.8874,2.8853,2.8809,2.8777,2.8734,2.869,2.8667,2.8631,2.8593,2.8533,2.8536,2.8508,2.8495,2.8466,2.8421,2.8473,2.8472,2.8465,2.8353,2.8351,2.8342,2.8418,2.8416,2.8415,2.8357,0,2.8885,2.8812,2.8797,2.8732,2.8695,2.8688,2.8651,2.8618,2.8599,2.8562,2.8539,2.8497,2.8505,2.8488,2.8459,2.8433,2.8398,2.8436,2.8381,2.8379,2.8393,2.8332,2.8329,2.8277,2.8349,2.8348,2.8347,0,2.8814,2.878,2.8713,2.8674,2.8658,2.8625,2.8583,2.8549,2.8511,2.8499,2.8468,2.8458,2.8411,2.8429,2.8362,2.8389,2.8365,2.8348,2.8346,2.834,2.8361,2.8325,2.8259,2.8252,2.8334,2.8335,2.8336,0,2.8784,2.872,2.8672,2.8653,2.8607,2.8584,2.8563,2.8527,2.8501,2.8463,2.8446,2.8402,2.8378,2.8343,2.832,2.8335,2.8256,2.8271,2.8243,2.8243,2.8227,2.8228,2.8157,2.821,2.821,2.8211,2.8211,0,2.8727,2.8686,2.8657,2.8628,2.8581,2.8563,2.8516,2.8495,2.8463,2.8427,2.8417,2.8383,2.8355,2.8317,2.8298,2.8246,2.8235,2.8222,2.8218,2.8223,2.8225,2.8208,2.8211,2.8208,2.8209,2.8209,2.821,0,2.8685,2.8664,2.8611,2.8572,2.8561,2.8529,2.8494,2.8464,2.8444,2.8399,2.8387,2.8354,2.8309,2.8283,2.8224,2.8212,2.8154,2.8151,2.8167,2.8166,2.8138,2.8141,2.8054,2.8041,2.8103,2.8102,2.8102,0,2.8651,2.862,2.8578,2.8555,2.8534,2.8496,2.8471,2.845,2.8423,2.8378,2.8353,2.8307,2.827,2.8196,2.8166,2.8121,2.8117,2.8089,2.811,2.8117,2.8117,2.812,2.8116,2.8086,2.8085,2.8085,2.8085,0,2.8592,2.8584,2.8549,2.851,2.848,2.8447,2.8415,2.8395,2.8369,2.8339,2.8294,2.8265,2.8206,2.816,2.8113,2.8088,2.8081,2.8078,2.8069,2.8075,2.8086,2.808,2.8158,2.8081,2.8081,2.8081,2.8081,2.8082,2.8553,2.8526,2.8492,2.8453,2.8427,2.8397,2.8367,2.8344,2.8307,2.8259,2.8248,2.82,2.8162,2.8098,2.8072,2.8033,2.8038,2.8024,2.8021,2.8018,2.8018,2.8092,2.8024,2.8024,2.8024,2.8024,2.8024,0,2.8495,2.8473,2.8438,2.8394,2.8362,2.8361,2.8325,2.8298,2.8257,2.8223,2.8187,2.8134,2.8089,2.8056,2.801,2.7984,2.798,2.7973,2.7975,2.7969,2.8016,2.8029,2.7977,2.7977,2.7977,2.7977,2.7977,2.7977,2.8461,2.8414,2.8401,2.834,2.8318,2.8273,2.8253,2.8224,2.8197,2.814,2.8104,2.8083,2.8048,2.7999,2.7958,2.7949,2.7932,2.7925,2.7916,2.7961,2.7966,2.797,2.7982,2.7922,2.7922,2.7872,2.7872,2.7871]}]]